Year,Month,Day,Hour,Minute,Value (Times are PST for temperature in C)
2010,04,19,00,00,12.10
2010,04,19,00,01,12.10
2010,04,19,00,02,12.10
2010,04,19,00,03,12.10
2010,04,19,00,04,12.10
2010,04,19,00,05,12.10
2010,04,19,00,06,12.10
2010,04,19,00,07,12.10
2010,04,19,00,08,12.10
2010,04,19,00,09,12.10
2010,04,19,00,10,12.10
2010,04,19,00,11,12.10
2010,04,19,00,12,12.10
2010,04,19,00,13,12.10
2010,04,19,00,14,12.10
2010,04,19,00,15,12.00
2010,04,19,00,16,12.00
2010,04,19,00,17,12.00
2010,04,19,00,18,11.90
2010,04,19,00,19,11.90
2010,04,19,00,20,11.90
2010,04,19,00,21,11.90
2010,04,19,00,22,11.90
2010,04,19,00,23,11.90
2010,04,19,00,24,11.80
2010,04,19,00,25,11.80
2010,04,19,00,26,11.80
2010,04,19,00,27,11.80
2010,04,19,00,28,11.80
2010,04,19,00,29,11.70
2010,04,19,00,30,11.70
2010,04,19,00,31,11.70
2010,04,19,00,32,11.70
2010,04,19,00,33,11.70
2010,04,19,00,34,11.70
2010,04,19,00,35,11.60
2010,04,19,00,36,11.60
2010,04,19,00,37,11.60
2010,04,19,00,38,11.60
2010,04,19,00,39,11.60
2010,04,19,00,40,11.60
2010,04,19,00,41,11.60
2010,04,19,00,42,11.60
2010,04,19,00,43,11.60
2010,04,19,00,44,11.60
2010,04,19,00,45,11.60
2010,04,19,00,46,11.50
2010,04,19,00,47,11.50
2010,04,19,00,48,11.50
2010,04,19,00,49,11.50
2010,04,19,00,50,11.50
2010,04,19,00,51,11.40
2010,04,19,00,52,11.40
2010,04,19,00,53,11.40
2010,04,19,00,54,11.40
2010,04,19,00,55,11.40
2010,04,19,00,56,11.30
2010,04,19,00,57,11.30
2010,04,19,00,58,11.30
2010,04,19,00,59,11.30
2010,04,19,01,00,11.30
2010,04,19,01,01,11.30
2010,04,19,01,02,11.30
2010,04,19,01,03,11.30
2010,04,19,01,04,11.30
2010,04,19,01,05,11.30
2010,04,19,01,06,11.30
2010,04,19,01,07,11.30
2010,04,19,01,08,11.20
2010,04,19,01,09,11.20
2010,04,19,01,10,11.20
2010,04,19,01,11,11.20
2010,04,19,01,12,11.20
2010,04,19,01,13,11.20
2010,04,19,01,14,11.20
2010,04,19,01,15,11.20
2010,04,19,01,16,11.20
2010,04,19,01,17,11.20
2010,04,19,01,18,11.20
2010,04,19,01,19,11.20
2010,04,19,01,20,11.20
2010,04,19,01,21,11.20
2010,04,19,01,22,11.20
2010,04,19,01,23,11.20
2010,04,19,01,24,11.20
2010,04,19,01,25,11.20
2010,04,19,01,26,11.20
2010,04,19,01,27,11.20
2010,04,19,01,28,11.30
2010,04,19,01,29,11.30
2010,04,19,01,30,11.30
2010,04,19,01,31,11.30
2010,04,19,01,32,11.30
2010,04,19,01,33,11.30
2010,04,19,01,34,11.30
2010,04,19,01,35,11.40
2010,04,19,01,36,11.40
2010,04,19,01,37,11.40
2010,04,19,01,38,11.40
2010,04,19,01,39,11.40
2010,04,19,01,40,11.40
2010,04,19,01,41,11.40
2010,04,19,01,42,11.40
2010,04,19,01,43,11.40
2010,04,19,01,44,11.40
2010,04,19,01,45,11.40
2010,04,19,01,46,11.40
2010,04,19,01,47,11.40
2010,04,19,01,48,11.40
2010,04,19,01,49,11.40
2010,04,19,01,50,11.40
2010,04,19,01,51,11.40
2010,04,19,01,52,11.40
2010,04,19,01,53,11.30
2010,04,19,01,54,11.30
2010,04,19,01,55,11.30
2010,04,19,01,56,11.30
2010,04,19,01,57,11.30
2010,04,19,01,58,11.30
2010,04,19,01,59,11.20
2010,04,19,02,00,11.20
2010,04,19,02,01,11.20
2010,04,19,02,02,11.20
2010,04,19,02,03,11.20
2010,04,19,02,04,11.20
2010,04,19,02,05,11.20
2010,04,19,02,06,11.10
2010,04,19,02,07,11.10
2010,04,19,02,08,11.10
2010,04,19,02,09,11.10
2010,04,19,02,10,11.10
2010,04,19,02,11,11.10
2010,04,19,02,12,11.10
2010,04,19,02,13,11.10
2010,04,19,02,14,11.20
2010,04,19,02,15,11.20
2010,04,19,02,16,11.20
2010,04,19,02,17,11.20
2010,04,19,02,18,11.20
2010,04,19,02,19,11.20
2010,04,19,02,20,11.20
2010,04,19,02,21,11.20
2010,04,19,02,22,11.20
2010,04,19,02,23,11.20
2010,04,19,02,24,11.20
2010,04,19,02,25,11.20
2010,04,19,02,26,11.20
2010,04,19,02,27,11.20
2010,04,19,02,28,11.20
2010,04,19,02,29,11.20
2010,04,19,02,30,11.20
2010,04,19,02,31,11.20
2010,04,19,02,32,11.20
2010,04,19,02,33,11.20
2010,04,19,02,34,11.20
2010,04,19,02,35,11.20
2010,04,19,02,36,11.20
2010,04,19,02,37,11.20
2010,04,19,02,38,11.10
2010,04,19,02,39,11.10
2010,04,19,02,40,11.10
2010,04,19,02,41,11.10
2010,04,19,02,42,11.10
2010,04,19,02,43,11.00
2010,04,19,02,44,11.00
2010,04,19,02,45,11.00
2010,04,19,02,46,10.90
2010,04,19,02,47,10.90
2010,04,19,02,48,10.90
2010,04,19,02,49,10.90
2010,04,19,02,50,10.90
2010,04,19,02,51,10.90
2010,04,19,02,52,10.80
2010,04,19,02,53,10.80
2010,04,19,02,54,10.80
2010,04,19,02,55,10.80
2010,04,19,02,56,10.80
2010,04,19,02,57,10.80
2010,04,19,02,58,10.80
2010,04,19,02,59,10.80
2010,04,19,03,00,10.80
2010,04,19,03,01,10.80
2010,04,19,03,02,10.80
2010,04,19,03,03,10.80
2010,04,19,03,04,10.80
2010,04,19,03,05,10.80
2010,04,19,03,06,10.80
2010,04,19,03,07,10.80
2010,04,19,03,08,10.80
2010,04,19,03,09,10.80
2010,04,19,03,10,10.80
2010,04,19,03,11,10.80
2010,04,19,03,12,10.80
2010,04,19,03,13,10.80
2010,04,19,03,14,10.80
2010,04,19,03,15,10.80
2010,04,19,03,16,10.80
2010,04,19,03,17,10.80
2010,04,19,03,18,10.80
2010,04,19,03,19,10.80
2010,04,19,03,20,10.80
2010,04,19,03,21,10.80
2010,04,19,03,22,10.80
2010,04,19,03,23,10.80
2010,04,19,03,24,10.80
2010,04,19,03,25,10.80
2010,04,19,03,26,10.80
2010,04,19,03,27,10.80
2010,04,19,03,28,10.80
2010,04,19,03,29,10.80
2010,04,19,03,30,10.80
2010,04,19,03,31,10.90
2010,04,19,03,32,10.90
2010,04,19,03,33,10.90
2010,04,19,03,34,10.90
2010,04,19,03,35,11.00
2010,04,19,03,36,11.00
2010,04,19,03,37,11.00
2010,04,19,03,38,11.00
2010,04,19,03,39,11.10
2010,04,19,03,40,11.10
2010,04,19,03,41,11.10
2010,04,19,03,42,11.10
2010,04,19,03,43,11.10
2010,04,19,03,44,11.00
2010,04,19,03,45,11.00
2010,04,19,03,46,11.00
2010,04,19,03,47,11.00
2010,04,19,03,48,11.00
2010,04,19,03,49,11.00
2010,04,19,03,50,11.00
2010,04,19,03,51,11.00
2010,04,19,03,52,11.00
2010,04,19,03,53,11.00
2010,04,19,03,54,10.90
2010,04,19,03,55,10.90
2010,04,19,03,56,10.90
2010,04,19,03,57,10.90
2010,04,19,03,58,10.90
2010,04,19,03,59,10.90
2010,04,19,04,00,10.90
2010,04,19,04,01,10.90
2010,04,19,04,02,10.90
2010,04,19,04,03,10.90
2010,04,19,04,04,10.90
2010,04,19,04,05,10.90
2010,04,19,04,06,10.90
2010,04,19,04,07,10.90
2010,04,19,04,08,11.00
2010,04,19,04,09,11.00
2010,04,19,04,10,11.10
2010,04,19,04,11,11.10
2010,04,19,04,12,11.10
2010,04,19,04,13,11.10
2010,04,19,04,14,11.20
2010,04,19,04,15,11.20
2010,04,19,04,16,11.20
2010,04,19,04,17,11.20
2010,04,19,04,18,11.20
2010,04,19,04,19,11.20
2010,04,19,04,20,11.20
2010,04,19,04,21,11.20
2010,04,19,04,22,11.20
2010,04,19,04,23,11.20
2010,04,19,04,24,11.30
2010,04,19,04,25,11.30
2010,04,19,04,26,11.30
2010,04,19,04,27,11.30
2010,04,19,04,28,11.30
2010,04,19,04,29,11.30
2010,04,19,04,30,11.40
2010,04,19,04,31,11.40
2010,04,19,04,32,11.40
2010,04,19,04,33,11.50
2010,04,19,04,34,11.50
2010,04,19,04,35,11.50
2010,04,19,04,36,11.50
2010,04,19,04,37,11.50
2010,04,19,04,38,11.60
2010,04,19,04,39,11.50
2010,04,19,04,40,11.50
2010,04,19,04,41,11.50
2010,04,19,04,42,11.50
2010,04,19,04,43,11.50
2010,04,19,04,44,11.40
2010,04,19,04,45,11.40
2010,04,19,04,46,11.40
2010,04,19,04,47,11.40
2010,04,19,04,48,11.40
2010,04,19,04,49,11.30
2010,04,19,04,50,11.30
2010,04,19,04,51,11.30
2010,04,19,04,52,11.30
2010,04,19,04,53,11.20
2010,04,19,04,54,11.20
2010,04,19,04,55,11.20
2010,04,19,04,56,11.20
2010,04,19,04,57,11.10
2010,04,19,04,58,11.10
2010,04,19,04,59,11.10
2010,04,19,05,00,11.10
2010,04,19,05,01,11.10
2010,04,19,05,02,11.10
2010,04,19,05,03,11.10
2010,04,19,05,04,11.10
2010,04,19,05,05,11.00
2010,04,19,05,06,11.00
2010,04,19,05,07,11.00
2010,04,19,05,08,11.00
2010,04,19,05,09,11.00
2010,04,19,05,10,11.00
2010,04,19,05,11,11.00
2010,04,19,05,12,11.00
2010,04,19,05,13,11.00
2010,04,19,05,14,10.90
2010,04,19,05,15,11.00
2010,04,19,05,16,11.00
2010,04,19,05,17,11.00
2010,04,19,05,18,11.00
2010,04,19,05,19,11.00
2010,04,19,05,20,11.00
2010,04,19,05,21,11.00
2010,04,19,05,22,11.00
2010,04,19,05,23,11.00
2010,04,19,05,24,11.00
2010,04,19,05,25,11.00
2010,04,19,05,26,11.00
2010,04,19,05,27,11.00
2010,04,19,05,28,11.00
2010,04,19,05,29,11.00
2010,04,19,05,30,11.00
2010,04,19,05,31,11.00
2010,04,19,05,32,11.00
2010,04,19,05,33,11.00
2010,04,19,05,34,11.10
2010,04,19,05,35,11.10
2010,04,19,05,36,11.10
2010,04,19,05,37,11.10
2010,04,19,05,38,11.10
2010,04,19,05,39,11.10
2010,04,19,05,40,11.10
2010,04,19,05,41,11.10
2010,04,19,05,42,11.10
2010,04,19,05,43,11.10
2010,04,19,05,44,11.10
2010,04,19,05,45,11.10
2010,04,19,05,46,11.10
2010,04,19,05,47,11.10
2010,04,19,05,48,11.20
2010,04,19,05,49,11.20
2010,04,19,05,50,11.20
2010,04,19,05,51,11.30
2010,04,19,05,52,11.30
2010,04,19,05,53,11.30
2010,04,19,05,54,11.40
2010,04,19,05,55,11.40
2010,04,19,05,56,11.40
2010,04,19,05,57,11.50
2010,04,19,05,58,11.50
2010,04,19,05,59,11.60
2010,04,19,06,00,11.60
2010,04,19,06,01,11.70
2010,04,19,06,02,11.70
2010,04,19,06,03,11.70
2010,04,19,06,04,11.70
2010,04,19,06,05,11.80
2010,04,19,06,06,11.80
2010,04,19,06,07,11.80
2010,04,19,06,08,11.80
2010,04,19,06,09,11.80
2010,04,19,06,10,11.80
2010,04,19,06,11,11.80
2010,04,19,06,12,11.80
2010,04,19,06,13,11.80
2010,04,19,06,14,11.80
2010,04,19,06,15,11.70
2010,04,19,06,16,11.70
2010,04,19,06,17,11.70
2010,04,19,06,18,11.70
2010,04,19,06,19,11.70
2010,04,19,06,20,11.70
2010,04,19,06,21,11.60
2010,04,19,06,22,11.60
2010,04,19,06,23,11.60
2010,04,19,06,24,11.60
2010,04,19,06,25,11.50
2010,04,19,06,26,11.50
2010,04,19,06,27,11.50
2010,04,19,06,28,11.50
2010,04,19,06,29,11.50
2010,04,19,06,30,11.50
2010,04,19,06,31,11.50
2010,04,19,06,32,11.50
2010,04,19,06,33,11.50
2010,04,19,06,34,11.40
2010,04,19,06,35,11.40
2010,04,19,06,36,11.40
2010,04,19,06,37,11.40
2010,04,19,06,38,11.40
2010,04,19,06,39,11.40
2010,04,19,06,40,11.40
2010,04,19,06,41,11.40
2010,04,19,06,42,11.30
2010,04,19,06,43,11.30
2010,04,19,06,44,11.30
2010,04,19,06,45,11.30
2010,04,19,06,46,11.30
2010,04,19,06,47,11.30
2010,04,19,06,48,11.30
2010,04,19,06,49,11.30
2010,04,19,06,50,11.30
2010,04,19,06,51,11.30
2010,04,19,06,52,11.30
2010,04,19,06,53,11.40
2010,04,19,06,54,11.40
2010,04,19,06,55,11.40
2010,04,19,06,56,11.50
2010,04,19,06,57,11.50
2010,04,19,06,58,11.50
2010,04,19,06,59,11.60
2010,04,19,07,00,11.60
2010,04,19,07,01,11.60
2010,04,19,07,02,11.60
2010,04,19,07,03,11.60
2010,04,19,07,04,11.60
2010,04,19,07,05,11.60
2010,04,19,07,06,11.60
2010,04,19,07,07,11.60
2010,04,19,07,08,11.60
2010,04,19,07,09,11.60
2010,04,19,07,10,11.70
2010,04,19,07,11,11.70
2010,04,19,07,12,11.70
2010,04,19,07,13,11.70
2010,04,19,07,14,11.70
2010,04,19,07,15,11.70
2010,04,19,07,16,11.70
2010,04,19,07,17,11.70
2010,04,19,07,18,11.70
2010,04,19,07,19,11.70
2010,04,19,07,20,11.70
2010,04,19,07,21,11.70
2010,04,19,07,22,11.80
2010,04,19,07,23,11.80
2010,04,19,07,24,11.80
2010,04,19,07,25,11.80
2010,04,19,07,26,11.80
2010,04,19,07,27,11.80
2010,04,19,07,28,11.90
2010,04,19,07,29,11.90
2010,04,19,07,30,11.90
2010,04,19,07,31,11.90
2010,04,19,07,32,12.00
2010,04,19,07,33,12.00
2010,04,19,07,34,12.00
2010,04,19,07,35,12.00
2010,04,19,07,36,12.00
2010,04,19,07,37,12.00
2010,04,19,07,38,12.00
2010,04,19,07,39,12.00
2010,04,19,07,40,12.00
2010,04,19,07,41,12.00
2010,04,19,07,42,12.00
2010,04,19,07,43,12.00
2010,04,19,07,44,12.00
2010,04,19,07,45,12.00
2010,04,19,07,46,12.00
2010,04,19,07,47,12.00
2010,04,19,07,48,12.00
2010,04,19,07,49,11.90
2010,04,19,07,50,11.90
2010,04,19,07,51,11.90
2010,04,19,07,52,11.90
2010,04,19,07,53,11.90
2010,04,19,07,54,11.90
2010,04,19,07,55,11.90
2010,04,19,07,56,11.90
2010,04,19,07,57,11.90
2010,04,19,07,58,11.90
2010,04,19,07,59,12.00
2010,04,19,08,00,12.00
2010,04,19,08,01,12.10
2010,04,19,08,02,12.20
2010,04,19,08,03,12.30
2010,04,19,08,04,12.30
2010,04,19,08,05,12.40
2010,04,19,08,06,12.50
2010,04,19,08,07,12.60
2010,04,19,08,08,12.60
2010,04,19,08,09,12.70
2010,04,19,08,10,12.70
2010,04,19,08,11,12.70
2010,04,19,08,12,12.70
2010,04,19,08,13,12.70
2010,04,19,08,14,12.70
2010,04,19,08,15,12.60
2010,04,19,08,16,12.60
2010,04,19,08,17,12.60
2010,04,19,08,18,12.60
2010,04,19,08,19,12.60
2010,04,19,08,20,12.60
2010,04,19,08,21,12.60
2010,04,19,08,22,12.60
2010,04,19,08,23,12.60
2010,04,19,08,24,12.60
2010,04,19,08,25,12.60
2010,04,19,08,26,12.60
2010,04,19,08,27,12.60
2010,04,19,08,28,12.60
2010,04,19,08,29,12.70
2010,04,19,08,30,12.70
2010,04,19,08,31,12.70
2010,04,19,08,32,12.70
2010,04,19,08,33,12.70
2010,04,19,08,34,12.70
2010,04,19,08,35,12.80
2010,04,19,08,36,12.80
2010,04,19,08,37,12.80
2010,04,19,08,38,12.80
2010,04,19,08,39,12.80
2010,04,19,08,40,12.80
2010,04,19,08,41,12.80
2010,04,19,08,42,12.80
2010,04,19,08,43,12.80
2010,04,19,08,44,12.80
2010,04,19,08,45,12.80
2010,04,19,08,46,12.80
2010,04,19,08,47,12.80
2010,04,19,08,48,12.80
2010,04,19,08,49,12.80
2010,04,19,08,50,12.80
2010,04,19,08,51,12.80
2010,04,19,08,52,12.70
2010,04,19,08,53,12.70
2010,04,19,08,54,12.70
2010,04,19,08,55,12.70
2010,04,19,08,56,12.70
2010,04,19,08,57,12.70
2010,04,19,08,58,12.70
2010,04,19,08,59,12.80
2010,04,19,09,00,12.80
2010,04,19,09,01,12.80
2010,04,19,09,02,12.80
2010,04,19,09,03,12.80
2010,04,19,09,04,12.80
2010,04,19,09,05,12.80
2010,04,19,09,06,12.90
2010,04,19,09,07,12.90
2010,04,19,09,08,12.90
2010,04,19,09,09,12.90
2010,04,19,09,10,12.90
2010,04,19,09,11,12.90
2010,04,19,09,12,12.90
2010,04,19,09,13,12.90
2010,04,19,09,14,12.90
2010,04,19,09,15,12.90
2010,04,19,09,16,13.00
2010,04,19,09,17,13.00
2010,04,19,09,18,13.00
2010,04,19,09,19,13.00
2010,04,19,09,20,13.00
2010,04,19,09,21,13.10
2010,04,19,09,22,13.00
2010,04,19,09,23,13.10
2010,04,19,09,24,13.00
2010,04,19,09,25,13.00
2010,04,19,09,26,13.00
2010,04,19,09,27,13.10
2010,04,19,09,28,13.10
2010,04,19,09,29,13.10
2010,04,19,09,30,13.10
2010,04,19,09,31,13.10
2010,04,19,09,32,13.10
2010,04,19,09,33,13.10
2010,04,19,09,34,13.10
2010,04,19,09,35,13.20
2010,04,19,09,36,13.20
2010,04,19,09,37,13.20
2010,04,19,09,38,13.20
2010,04,19,09,39,13.20
2010,04,19,09,40,13.20
2010,04,19,09,41,13.20
2010,04,19,09,42,13.20
2010,04,19,09,43,13.20
2010,04,19,09,44,13.30
2010,04,19,09,45,13.30
2010,04,19,09,46,13.30
2010,04,19,09,47,13.30
2010,04,19,09,48,13.30
2010,04,19,09,49,13.30
2010,04,19,09,50,13.30
2010,04,19,09,51,13.30
2010,04,19,09,52,13.40
2010,04,19,09,53,13.40
2010,04,19,09,54,13.40
2010,04,19,09,55,13.40
2010,04,19,09,56,13.40
2010,04,19,09,57,13.40
2010,04,19,09,58,13.50
2010,04,19,09,59,13.50
2010,04,19,10,00,13.50
2010,04,19,10,01,13.60
2010,04,19,10,02,13.60
2010,04,19,10,03,13.70
2010,04,19,10,04,13.70
2010,04,19,10,05,13.70
2010,04,19,10,06,13.80
2010,04,19,10,07,13.80
2010,04,19,10,08,13.80
2010,04,19,10,09,13.90
2010,04,19,10,10,13.90
2010,04,19,10,11,13.90
2010,04,19,10,12,14.00
2010,04,19,10,13,14.00
2010,04,19,10,14,14.10
2010,04,19,10,15,14.10
2010,04,19,10,16,14.10
2010,04,19,10,17,14.10
2010,04,19,10,18,14.20
2010,04,19,10,19,14.20
2010,04,19,10,20,14.20
2010,04,19,10,21,14.20
2010,04,19,10,22,14.30
2010,04,19,10,23,14.30
2010,04,19,10,24,14.30
2010,04,19,10,25,14.40
2010,04,19,10,26,14.40
2010,04,19,10,27,14.50
2010,04,19,10,28,14.50
2010,04,19,10,29,14.60
2010,04,19,10,30,14.60
2010,04,19,10,31,14.60
2010,04,19,10,32,14.60
2010,04,19,10,33,14.60
2010,04,19,10,34,14.70
2010,04,19,10,35,14.80
2010,04,19,10,36,14.80
2010,04,19,10,37,14.90
2010,04,19,10,38,14.90
2010,04,19,10,39,15.00
2010,04,19,10,40,15.00
2010,04,19,10,41,15.00
2010,04,19,10,42,15.10
2010,04,19,10,43,15.10
2010,04,19,10,44,15.20
2010,04,19,10,45,15.20
2010,04,19,10,46,15.20
2010,04,19,10,47,15.30
2010,04,19,10,48,15.30
2010,04,19,10,49,15.30
2010,04,19,10,50,15.30
2010,04,19,10,51,15.30
2010,04,19,10,52,15.30
2010,04,19,10,53,15.40
2010,04,19,10,54,15.40
2010,04,19,10,55,15.40
2010,04,19,10,56,15.40
2010,04,19,10,57,15.40
2010,04,19,10,58,15.40
2010,04,19,10,59,15.50
2010,04,19,11,00,15.50
2010,04,19,11,01,15.50
2010,04,19,11,02,15.50
2010,04,19,11,03,15.60
2010,04,19,11,04,15.60
2010,04,19,11,05,15.70
2010,04,19,11,06,15.70
2010,04,19,11,07,15.60
2010,04,19,11,08,15.60
2010,04,19,11,09,15.60
2010,04,19,11,10,15.70
2010,04,19,11,11,15.80
2010,04,19,11,12,15.80
2010,04,19,11,13,15.80
2010,04,19,11,14,15.90
2010,04,19,11,15,15.90
2010,04,19,11,16,16.00
2010,04,19,11,17,16.00
2010,04,19,11,18,16.10
2010,04,19,11,19,16.20
2010,04,19,11,20,16.20
2010,04,19,11,21,16.30
2010,04,19,11,22,16.30
2010,04,19,11,23,16.30
2010,04,19,11,24,16.30
2010,04,19,11,25,16.30
2010,04,19,11,26,16.40
2010,04,19,11,27,16.40
2010,04,19,11,28,16.50
2010,04,19,11,29,16.50
2010,04,19,11,30,16.40
2010,04,19,11,31,16.40
2010,04,19,11,32,16.40
2010,04,19,11,33,16.40
2010,04,19,11,34,16.40
2010,04,19,11,35,16.50
2010,04,19,11,36,16.50
2010,04,19,11,37,16.60
2010,04,19,11,38,16.60
2010,04,19,11,39,16.70
2010,04,19,11,40,16.70
2010,04,19,11,41,16.70
2010,04,19,11,42,16.80
2010,04,19,11,43,16.80
2010,04,19,11,44,16.80
2010,04,19,11,45,16.80
2010,04,19,11,46,16.80
2010,04,19,11,47,16.90
2010,04,19,11,48,16.90
2010,04,19,11,49,16.90
2010,04,19,11,50,17.00
2010,04,19,11,51,17.10
2010,04,19,11,52,17.10
2010,04,19,11,53,17.00
2010,04,19,11,54,17.00
2010,04,19,11,55,17.00
2010,04,19,11,56,17.10
2010,04,19,11,57,17.10
2010,04,19,11,58,17.10
2010,04,19,11,59,17.20
2010,04,19,12,00,17.20
2010,04,19,12,01,17.20
2010,04,19,12,02,17.20
2010,04,19,12,03,17.20
2010,04,19,12,04,17.20
2010,04,19,12,05,17.20
2010,04,19,12,06,17.20
2010,04,19,12,07,17.10
2010,04,19,12,08,17.10
2010,04,19,12,09,17.10
2010,04,19,12,10,17.00
2010,04,19,12,11,17.00
2010,04,19,12,12,16.90
2010,04,19,12,13,16.90
2010,04,19,12,14,16.90
2010,04,19,12,15,16.90
2010,04,19,12,16,16.90
2010,04,19,12,17,16.90
2010,04,19,12,18,16.90
2010,04,19,12,19,16.90
2010,04,19,12,20,16.90
2010,04,19,12,21,16.80
2010,04,19,12,22,16.80
2010,04,19,12,23,16.80
2010,04,19,12,24,16.80
2010,04,19,12,25,16.80
2010,04,19,12,26,16.80
2010,04,19,12,27,16.80
2010,04,19,12,28,16.80
2010,04,19,12,29,16.80
2010,04,19,12,30,16.80
2010,04,19,12,31,16.90
2010,04,19,12,32,16.90
2010,04,19,12,33,16.90
2010,04,19,12,34,16.90
2010,04,19,12,35,16.90
2010,04,19,12,36,16.90
2010,04,19,12,37,16.90
2010,04,19,12,38,17.00
2010,04,19,12,39,17.00
2010,04,19,12,40,17.10
2010,04,19,12,41,17.10
2010,04,19,12,42,17.10
2010,04,19,12,43,17.20
2010,04,19,12,44,17.20
2010,04,19,12,45,17.20
2010,04,19,12,46,17.30
2010,04,19,12,47,17.30
2010,04,19,12,48,17.30
2010,04,19,12,49,17.40
2010,04,19,12,50,17.40
2010,04,19,12,51,17.50
2010,04,19,12,52,17.60
2010,04,19,12,53,17.60
2010,04,19,12,54,17.60
2010,04,19,12,55,17.60
2010,04,19,12,56,17.60
2010,04,19,12,57,17.70
2010,04,19,12,58,17.70
2010,04,19,12,59,17.70
2010,04,19,13,00,17.70
2010,04,19,13,01,17.70
2010,04,19,13,02,17.60
2010,04,19,13,03,17.70
2010,04,19,13,04,17.70
2010,04,19,13,05,17.70
2010,04,19,13,06,17.70
2010,04,19,13,07,17.70
2010,04,19,13,08,17.70
2010,04,19,13,09,17.70
2010,04,19,13,10,17.70
2010,04,19,13,11,17.70
2010,04,19,13,12,17.60
2010,04,19,13,13,17.60
2010,04,19,13,14,17.70
2010,04,19,13,15,17.60
2010,04,19,13,16,17.70
2010,04,19,13,17,17.70
2010,04,19,13,18,17.70
2010,04,19,13,19,17.70
2010,04,19,13,20,17.70
2010,04,19,13,21,17.80
2010,04,19,13,22,17.80
2010,04,19,13,23,17.80
2010,04,19,13,24,17.90
2010,04,19,13,25,17.90
2010,04,19,13,26,18.00
2010,04,19,13,27,18.00
2010,04,19,13,28,18.10
2010,04,19,13,29,18.10
2010,04,19,13,30,18.20
2010,04,19,13,31,18.20
2010,04,19,13,32,18.30
2010,04,19,13,33,18.40
2010,04,19,13,34,18.50
2010,04,19,13,35,18.50
2010,04,19,13,36,18.60
2010,04,19,13,37,18.60
2010,04,19,13,38,18.60
2010,04,19,13,39,18.70
2010,04,19,13,40,18.70
2010,04,19,13,41,18.80
2010,04,19,13,42,18.90
2010,04,19,13,43,19.00
2010,04,19,13,44,19.00
2010,04,19,13,45,19.10
2010,04,19,13,46,19.20
2010,04,19,13,47,19.20
2010,04,19,13,48,19.30
2010,04,19,13,49,19.30
2010,04,19,13,50,19.40
2010,04,19,13,51,19.40
2010,04,19,13,52,19.50
2010,04,19,13,53,19.50
2010,04,19,13,54,19.50
2010,04,19,13,55,19.50
2010,04,19,13,56,19.40
2010,04,19,13,57,19.40
2010,04,19,13,58,19.30
2010,04,19,13,59,19.30
2010,04,19,14,00,19.20
2010,04,19,14,01,19.20
2010,04,19,14,02,19.20
2010,04,19,14,03,19.10
2010,04,19,14,04,19.10
2010,04,19,14,05,19.10
2010,04,19,14,06,19.10
2010,04,19,14,07,19.00
2010,04,19,14,08,19.00
2010,04,19,14,09,19.00
2010,04,19,14,10,18.90
2010,04,19,14,11,18.90
2010,04,19,14,12,18.80
2010,04,19,14,13,18.80
2010,04,19,14,14,18.80
2010,04,19,14,15,18.80
2010,04,19,14,16,18.80
2010,04,19,14,17,18.80
2010,04,19,14,18,18.80
2010,04,19,14,19,18.70
2010,04,19,14,20,18.70
2010,04,19,14,21,18.70
2010,04,19,14,22,18.70
2010,04,19,14,23,18.80
2010,04,19,14,24,18.80
2010,04,19,14,25,18.90
2010,04,19,14,26,19.00
2010,04,19,14,27,19.10
2010,04,19,14,28,19.10
2010,04,19,14,29,19.20
2010,04,19,14,30,19.20
2010,04,19,14,31,19.30
2010,04,19,14,32,19.30
2010,04,19,14,33,19.30
2010,04,19,14,34,19.30
2010,04,19,14,35,19.30
2010,04,19,14,36,19.20
2010,04,19,14,37,19.20
2010,04,19,14,38,19.20
2010,04,19,14,39,19.20
2010,04,19,14,40,19.20
2010,04,19,14,41,19.30
2010,04,19,14,42,19.40
2010,04,19,14,43,19.40
2010,04,19,14,44,19.50
2010,04,19,14,45,19.60
2010,04,19,14,46,19.60
2010,04,19,14,47,19.60
2010,04,19,14,48,19.60
2010,04,19,14,49,19.60
2010,04,19,14,50,19.60
2010,04,19,14,51,19.60
2010,04,19,14,52,19.50
2010,04,19,14,53,19.50
2010,04,19,14,54,19.50
2010,04,19,14,55,19.60
2010,04,19,14,56,19.60
2010,04,19,14,57,19.60
2010,04,19,14,58,19.70
2010,04,19,14,59,19.70
2010,04,19,15,00,19.80
2010,04,19,15,01,19.80
2010,04,19,15,02,19.80
2010,04,19,15,03,19.70
2010,04,19,15,04,19.70
2010,04,19,15,05,19.70
2010,04,19,15,06,19.70
2010,04,19,15,07,19.60
2010,04,19,15,08,19.60
2010,04,19,15,09,19.50
2010,04,19,15,10,19.50
2010,04,19,15,11,19.50
2010,04,19,15,12,19.50
2010,04,19,15,13,19.40
2010,04,19,15,14,19.40
2010,04,19,15,15,19.40
2010,04,19,15,16,19.30
2010,04,19,15,17,19.30
2010,04,19,15,18,19.30
2010,04,19,15,19,19.30
2010,04,19,15,20,19.40
2010,04,19,15,21,19.40
2010,04,19,15,22,19.40
2010,04,19,15,23,19.50
2010,04,19,15,24,19.50
2010,04,19,15,25,19.60
2010,04,19,15,26,19.50
2010,04,19,15,27,19.50
2010,04,19,15,28,19.40
2010,04,19,15,29,19.40
2010,04,19,15,30,19.40
2010,04,19,15,31,19.40
2010,04,19,15,32,19.40
2010,04,19,15,33,19.30
2010,04,19,15,34,19.30
2010,04,19,15,35,19.20
2010,04,19,15,36,19.10
2010,04,19,15,37,19.00
2010,04,19,15,38,19.00
2010,04,19,15,39,19.00
2010,04,19,15,40,18.90
2010,04,19,15,41,18.90
2010,04,19,15,42,18.90
2010,04,19,15,43,18.80
2010,04,19,15,44,18.80
2010,04,19,15,45,18.80
2010,04,19,15,46,18.80
2010,04,19,15,47,18.80
2010,04,19,15,48,18.80
2010,04,19,15,49,18.70
2010,04,19,15,50,18.70
2010,04,19,15,51,18.70
2010,04,19,15,52,18.70
2010,04,19,15,53,18.70
2010,04,19,15,54,18.70
2010,04,19,15,55,18.70
2010,04,19,15,56,18.70
2010,04,19,15,57,18.70
2010,04,19,15,58,18.70
2010,04,19,15,59,18.70
2010,04,19,16,00,18.70
2010,04,19,16,01,18.70
2010,04,19,16,02,18.70
2010,04,19,16,03,18.70
2010,04,19,16,04,18.70
2010,04,19,16,05,18.70
2010,04,19,16,06,18.70
2010,04,19,16,07,18.70
2010,04,19,16,08,18.70
2010,04,19,16,09,18.70
2010,04,19,16,10,18.70
2010,04,19,16,11,18.70
2010,04,19,16,12,18.70
2010,04,19,16,13,18.60
2010,04,19,16,14,18.60
2010,04,19,16,15,18.60
2010,04,19,16,16,18.60
2010,04,19,16,17,18.50
2010,04,19,16,18,18.50
2010,04,19,16,19,18.50
2010,04,19,16,20,18.50
2010,04,19,16,21,18.50
2010,04,19,16,22,18.50
2010,04,19,16,23,18.50
2010,04,19,16,24,18.50
2010,04,19,16,25,18.60
2010,04,19,16,26,18.60
2010,04,19,16,27,18.50
2010,04,19,16,28,18.50
2010,04,19,16,29,18.40
2010,04,19,16,30,18.40
2010,04,19,16,31,18.30
2010,04,19,16,32,18.30
2010,04,19,16,33,18.30
2010,04,19,16,34,18.20
2010,04,19,16,35,18.20
2010,04,19,16,36,18.20
2010,04,19,16,37,18.20
2010,04,19,16,38,18.20
2010,04,19,16,39,18.20
2010,04,19,16,40,18.20
2010,04,19,16,41,18.20
2010,04,19,16,42,18.20
2010,04,19,16,43,18.20
2010,04,19,16,44,18.20
2010,04,19,16,45,18.20
2010,04,19,16,46,18.20
2010,04,19,16,47,18.20
2010,04,19,16,48,18.30
2010,04,19,16,49,18.30
2010,04,19,16,50,18.30
2010,04,19,16,51,18.20
2010,04,19,16,52,18.20
2010,04,19,16,53,18.20
2010,04,19,16,54,18.20
2010,04,19,16,55,18.20
2010,04,19,16,56,18.20
2010,04,19,16,57,18.20
2010,04,19,16,58,18.20
2010,04,19,16,59,18.20
2010,04,19,17,00,18.20
2010,04,19,17,01,18.10
2010,04,19,17,02,18.10
2010,04,19,17,03,18.10
2010,04,19,17,04,18.00
2010,04,19,17,05,17.90
2010,04,19,17,06,17.90
2010,04,19,17,07,17.90
2010,04,19,17,08,17.90
2010,04,19,17,09,17.80
2010,04,19,17,10,17.80
2010,04,19,17,11,17.80
2010,04,19,17,12,17.80
2010,04,19,17,13,17.80
2010,04,19,17,14,17.90
2010,04,19,17,15,17.90
2010,04,19,17,16,18.00
2010,04,19,17,17,18.10
2010,04,19,17,18,18.10
2010,04,19,17,19,18.20